Showing default

KINEIS-5A, 62084

Orbit data source: Space-Track

KINEIS-5A, 62084 is a French payload satellite in SSO that was launched on Mon, 25 Nov 2024 UTC via an ELECTRON launch vehicle from the Rocket Lab Launch Complex (RLLC). Payload-class satellites include a variety of spacecraft equipped with specific instruments for various scientific and technological missions. These include communications satellites like Starlink; space stations such as the ISS; scientific satellites like the Hubble; Earth observation satellites from companies like Planet Labs, Umbra, and HawkEye 360; GPS; miniature CubeSats for education and research; and military/defense satellites.

Loading next visibility...
Identifier
62084, 2024-219D
Orbit
SSO
Country
Flag of FRFR
Related business
Manufacturer
KINEIS
Mission
Operational Commercial Communications
Bus & Motor
CUBESAT 16U, Unknown motor
Mass
28 kg wet, 28 kg dry
Launch date (UTC)
2024-11-25 (1 year ago)
Launch vehicle
ELECTRON
Launch site
Rocket Lab Launch Complex (RLLC)
Object type
Payload
Rocket body
Debris
Shape & HBR
Box + 2 Pan + 1 Ant, 1.0 m
Radar Cross Section
0.229 m², Medium (>0.1 m² and < 1m²)

Expand to show TLE details & history
Last TLE update: 5 hours ago

TLE from 5 hours ago
0 KINEIS-5A
1 62084U 24219D   26124.58129715  .00001494  00000-0  24390-3 0  9990
2 62084  97.9214 285.0624 0007189  73.9217 286.2782 14.72314879 77358
Epoch: 2026-05-04T13:57Z
TLE epoch observation values (Epoch: 2026-05-04T13:57:04.073Z)
Latitude
-0.00002°
Longitude
-146.67301°
Altitude
655.284 km
Speed
7.531 km/s
True Right ascension
19h 00m 14s
True Declination
0° 00' 00"
Sunlit
Object was in full shadow at epoch
Visualization orbit readout
Latitude
Unknown
Longitude
Unknown
Altitude
Unknown
Speed
Unknown
Apparent Right ascension
Unknown
Apparent Declination
Unknown
Sunlit
N/A
Visualization observer readout
Local Sidereal Time
02:59:38
Azimuth
Unknown
Elevation
Unknown
Doppler factor
Unknown
Orbital elements
Apogee altitude
655.793 km
Perigee altitude
645.687 km
Semi-major axis
7,028.877 km
Eccentricity
0.00072
Inclination
97.9214°
RAAN
285.0624°
Arg. of periapsis
73.9217°
True anomaly
286.1991°
Mean anomaly
286.2782°
Eccentric anomaly
286.23865°
Mean motion
3.68311 °/min
Orbital period
97.74 mins
BSTAR
0.0002439
Loading maneuver chart data...
Computing Atmospheric mass density...
Loading historical data...
Loading historical data...
Loading historical data...
Loading historical data...
Loading historical data...
Loading historical data...
Loading historical data...

Documentation

Showing up to 5 results
|